TOURFACTS.DK  
Stats and Facts from Tour de France.

Tour de France 2019 starts in 348 days
  Riders   Stages   Teams   Summits   Yearly  


 
Search by year

After 2018 - Stage 14:
 15000 starters.
  5163 different riders.
  639 teams.
  2246 stages.
  456 restdays.
  441957.60 km.
  5678 abandonnees.


Top 3
GC
Christopher Froome86:20:55
Rigoberto Urán86:21:49
Romain Bardet86:23:15
Climb
Warren Barguil169 pt.
Primoz Roglic80 pt.
Thomas De Gendt64 pt.
Sprint
Michael Matthews359 pt.
André Greipel234 pt.
Edvald Boasson Hagen220 pt.
Youth
Simon Yates86:27:09
Louis Meintjes86:29:15
Emanuel Buchmann86:54:16
Facts from Tour de France 1994
  |   Stages.  |   Stage winners.  |   Days in yellow  |   Average speed.  |   Route.  |   Teams.  |   All riders.  |   Rookies.  |  

  |   Withdrawls.  |   GC.  |   Polka  |   Green  |   White  |   Summits. (In tour)  |   Miscellaneous.  |  

Stage 18 on July 21st. 1994
         Owning:    Miguel Indurain    
Pick a stage:  Pro 1 2 3 4 5 6 7 8 9 10 11 12 13 14 15 16 17 18 19 20 21
From: Moűtiers    To: ClusesDist:174.50 km.
Cat: 1Col des SaisiesBELPeter De Clercq
30 points
 
Cat: 3Col du MaraisURSArturas Kasputis
10 points
 
Cat: 1Col de la Croix FryURSPiotr Ugrumov
30 points
 
Cat: 1Col de la Colombiere URSPiotr Ugrumov
30 points
 

Average speed for all riders in stage:  33,973 km./hr.
    Place:Name:Team:Time:Km/h:
URSPiotr UgrumovITAGewiss-Ballan04:52:19  +  00:00:00=35,817 
ESPMiguel IndurainESPBanesto04:54:58  +  00:02:39=35,496 
MARRichard VirenqueESPFestina-Andorra04:54:59  +  00:02:40=35,494 
4 ESPFernando EscartinBELMapei-Clas04:55:44  +  00:03:25=35,404 
5 ITAMarco PantaniITACarrera Jeans-Tassoni04:55:44  +  00:03:25=35,404 
6 ITARoberto ContiITALampre-Panaria04:55:45  +  00:03:26=35,402 
7 FRAPascal LinoESPFestina-Andorra04:55:49  +  00:03:30=35,394 
8 FRALuc LeblancESPFestina-Andorra04:55:49  +  00:03:30=35,394 
9 URSArturas KasputisFRAChazal-MBK-Konig04:57:14  +  00:04:55=35,225 
10 ITAOscar PelliccioliITAPolti-Vaporetto04:57:14  +  00:04:55=35,225 
11 ITAGianluca BortolamiBELMapei-Clas04:57:16  +  00:04:57=35,221 
12 DENBjarne RiisITAGewiss-Ballan04:57:16  +  00:04:57=35,221 
13 BELJim Van De LaerBELLotto-Veta-Caloi04:57:16  +  00:04:57=35,221 
14 DENRolf SřrensenITAGB-MG Maglificio04:57:16  +  00:04:57=35,221 
15 FRAÉric CaritouxFRAChazal-MBK-Konig04:57:16  +  00:04:57=35,221 
16 ITAAlberto ElliITAGB-MG Maglificio04:57:16  +  00:04:57=35,221 
17 SUIAlex ZülleESPO.N.C.E.04:57:16  +  00:04:57=35,221 
18 GERUdo BöltsDEUTelecom04:57:16  +  00:04:57=35,221 
19 COLAlvaro MejiaUSAMotorola04:57:16  +  00:04:57=35,221 
20 COLFederico FernandezESPKelme-Avianca04:57:47  +  00:05:28=35,160 
21 FRAJean-François BernardESPBanesto04:58:06  +  00:05:47=35,122 
22 COLHernán BuenahoraESPKelme-Avianca04:59:58  +  00:07:39=34,904 
23 DENBo HamburgerNLDTVM-Bison05:00:01  +  00:07:42=34,898 
24 ITAFranco VonaITAGB-MG Maglificio05:00:01  +  00:07:42=34,898 
25 URSVladimir PoulnikovITACarrera Jeans-Tassoni05:00:01  +  00:07:42=34,898 
26 SUIBeat ZbergITACarrera Jeans-Tassoni05:00:01  +  00:07:42=34,898 
27 FRAFrançois SimonFRACastorama05:00:01  +  00:07:42=34,898 
28 SUIJörg MüllerBELMapei-Clas05:00:01  +  00:07:42=34,898 
29 COLNelson RodriguezITAZG Mobili-Selle Italia05:00:01  +  00:07:42=34,898 
30 NEDErik BreukinkESPO.N.C.E.05:00:01  +  00:07:42=34,898 
31 ESPRamon GonzalezESPBanesto05:00:01  +  00:07:42=34,898 
32 ITABruno CenghialtaITAGewiss-Ballan05:00:01  +  00:07:42=34,898 
33 DDRJens HeppnerDEUTelecom05:02:25  +  00:10:06=34,621 
34 AUSNeil StephensESPO.N.C.E.05:02:25  +  00:10:06=34,621 
35 ITAFlavio VanzellaITAGB-MG Maglificio05:02:25  +  00:10:06=34,621 
36 DENJesper SkibbyNLDTVM-Bison05:03:27  +  00:11:08=34,503 
37 URSDjamolidine AbduzhaparovITAPolti-Vaporetto05:06:25  +  00:14:06=34,169 
38 DDRGerd AudehmDEUTelecom05:06:25  +  00:14:06=34,169 
39 FRAGérard RuéESPBanesto05:06:25  +  00:14:06=34,169 
40 ENGPhil AndersonUSAMotorola05:06:25  +  00:14:06=34,169 
41 GERRolf AldagDEUTelecom05:06:25  +  00:14:06=34,169 
42 ESPArsenio GonzálezBELMapei-Clas05:06:25  +  00:14:06=34,169 
43 ESPAbraham OlanoBELMapei-Clas05:06:25  +  00:14:06=34,169 
44 URSVladislav BobrikITAGewiss-Ballan05:06:25  +  00:14:06=34,169 
45 ESPFederico EchaveBELMapei-Clas05:06:25  +  00:14:06=34,169 
46 ESPJosé UriarteESPBanesto05:06:25  +  00:14:06=34,169 
47 URSSerguei OutschakovITAPolti-Vaporetto05:06:25  +  00:14:06=34,169 
48 ESPRaúl AlcaláUSAMotorola05:07:43  +  00:15:24=34,025 
49 FRAPascal HerveESPFestina-Andorra05:08:19  +  00:16:00=33,959 
50 URSViatcheslav EkimovBELWordperfect05:10:27  +  00:18:08=33,725 
51 BELPeter De ClercqBELLotto-Veta-Caloi05:13:06  +  00:20:47=33,440 
52 ITAMassimo GhirottoITAZG Mobili-Selle Italia05:13:06  +  00:20:47=33,440 
53 ENGSean YatesUSAMotorola05:13:06  +  00:20:47=33,440 
54 SVKJán SvoradaITALampre-Panaria05:13:06  +  00:20:47=33,440 
55 NORDag Otto LauritzenNLDTVM-Bison05:13:06  +  00:20:47=33,440 
56 NEDErwin NijboerESPBanesto05:13:06  +  00:20:47=33,440 
57 ITADavide PeronaITAZG Mobili-Selle Italia05:13:06  +  00:20:47=33,440 
58 NZLStephen SwartUSAMotorola05:13:06  +  00:20:47=33,440 
59 GERChristian HennDEUTelecom05:13:06  +  00:20:47=33,440 
60 NORAtle KvĺlsvollBELWordperfect05:13:06  +  00:20:47=33,440 
61 SUILaurent DufauxESPO.N.C.E.05:13:06  +  00:20:47=33,440 
62 BELLuc RoosenBELLotto-Veta-Caloi05:13:06  +  00:20:47=33,440 
63 ITAGiovanni FidanzaITAPolti-Vaporetto05:13:06  +  00:20:47=33,440 
64 ITASilvio MartinelloITAMercatone Uno-Medeghini05:13:06  +  00:20:47=33,440 
65 FRAChristophe ManinFRAChazal-MBK-Konig05:13:06  +  00:20:47=33,440 
66 ITAEnrico ZainaITAGewiss-Ballan05:13:06  +  00:20:47=33,440 
67 MEXMiguel ArroyoFRAChazal-MBK-Konig05:13:06  +  00:20:47=33,440 
68 ITAMarco ZenITALampre-Panaria05:13:06  +  00:20:47=33,440 
69 ITAGiancarlo PeriniITAZG Mobili-Selle Italia05:13:06  +  00:20:47=33,440 
70 FRAJean-Claude BagotESPFestina-Andorra05:13:06  +  00:20:47=33,440 
71 ITAAndrea PeronITAPolti-Vaporetto05:13:06  +  00:20:47=33,440 
72 ESPVicente AparicioESPBanesto05:13:06  +  00:20:47=33,440 
73 ITADavide CassaniITAGB-MG Maglificio05:13:06  +  00:20:47=33,440 
74 ITAGuido BontempiITAGewiss-Ballan05:13:06  +  00:20:47=33,440 
75 SUIRolf JärmannITAGB-MG Maglificio05:13:06  +  00:20:47=33,440 
76 ESPFrancisco CabelloESPKelme-Avianca05:13:06  +  00:20:47=33,440 
77 ITAFranco ChioccioliITAMercatone Uno-Medeghini05:13:06  +  00:20:47=33,440 
78 ITAMauro-Antonio SantaromitaITAZG Mobili-Selle Italia05:13:06  +  00:20:47=33,440 
79 URSDimitri ZhdanovITAPolti-Vaporetto05:13:06  +  00:20:47=33,440 
80 AUSStephen HodgeESPFestina-Andorra05:13:06  +  00:20:47=33,440 
81 USAFrankie AndreuUSAMotorola05:13:06  +  00:20:47=33,440 
82 ESPMelchor MauriESPBanesto05:13:06  +  00:20:47=33,440 
83 URSAndrei TchmilBELLotto-Veta-Caloi05:13:06  +  00:20:47=33,440 
84 BELJohan MuseeuwITAGB-MG Maglificio05:13:06  +  00:20:47=33,440 
85 BELMarc WautersBELWordperfect05:13:06  +  00:20:47=33,440 
86 FRAEddy SeigneurFRAGan05:13:06  +  00:20:47=33,440 
87 ITAMario ChiesaITACarrera Jeans-Tassoni05:13:06  +  00:20:47=33,440 
88 FRAPhilippe LouviotFRANovemail-Histor-Laser Computer05:13:06  +  00:20:47=33,440 
89 BELGuy NulensFRANovemail-Histor-Laser Computer05:13:06  +  00:20:47=33,440 
90 DDRUwe RaabDEUTelecom05:13:06  +  00:20:47=33,440 
91 COLJulio-César CadenaESPKelme-Avianca05:13:06  +  00:20:47=33,440 
92 ITADario BottaroITAGewiss-Ballan05:13:06  +  00:20:47=33,440 
93 NEDErik DekkerBELWordperfect05:13:06  +  00:20:47=33,440 
94 BELMarc SergeantFRANovemail-Histor-Laser Computer05:13:06  +  00:20:47=33,440 
95 POLCesary ZamanaESPKelme-Avianca05:13:06  +  00:20:47=33,440 
96 FRAThierry MarieFRACastorama05:13:06  +  00:20:47=33,440 
97 FRAFrancis MoreauFRAGan05:13:06  +  00:20:47=33,440 
98 FRAThierry GouvenouFRAGan05:13:06  +  00:20:47=33,440 
99 DDRMario KummerDEUTelecom05:13:06  +  00:20:47=33,440 
100 BELRudy VerdonckBELLotto-Veta-Caloi05:13:06  +  00:20:47=33,440 
101 BELCarlo BomansITAGB-MG Maglificio05:13:06  +  00:20:47=33,440 
102 FRAThomas DavyFRACastorama05:13:06  +  00:20:47=33,440 
103 COLAngel OchoaESPKelme-Avianca05:13:06  +  00:20:47=33,440 
104 ESPAlberto LeanizbarrutiaESPO.N.C.E.05:13:06  +  00:20:47=33,440 
105 BELMichel DerniesUSAMotorola05:13:06  +  00:20:47=33,440 
106 FRAPascal ChanteurFRAChazal-MBK-Konig05:13:06  +  00:20:47=33,440 
107 DDROlaf LudwigDEUTelecom05:13:06  +  00:20:47=33,440 
108 ESPÁngel EdoESPKelme-Avianca05:13:06  +  00:20:47=33,440 
109 NEDJohn TalenITAMercatone Uno-Medeghini05:13:06  +  00:20:47=33,440 
110 ITAGiorgio FurlanITAGewiss-Ballan05:13:06  +  00:20:47=33,440 
111 FRABruno ThiboutFRACastorama05:13:06  +  00:20:47=33,440 
112 NEDGerrit De VriesFRANovemail-Histor-Laser Computer05:13:35  +  00:21:16=33,388 
113 FRARonan PensecFRANovemail-Histor-Laser Computer05:13:35  +  00:21:16=33,388 
114 FRACharly MottetFRANovemail-Histor-Laser Computer05:13:35  +  00:21:16=33,388 
115 ITARemo RossiITACarrera Jeans-Tassoni05:14:55  +  00:22:36=33,247 
116 ESPHerminio ZabalaESPO.N.C.E.05:17:20  +  00:25:01=32,994 
117 BELHendrik RedantITAZG Mobili-Selle Italia05:21:38  +  00:29:19=32,553 
118 ITAEros PoliITAMercatone Uno-Medeghini05:21:38  +  00:29:19=32,553 
119 NEDRob MuldersBELWordperfect05:23:28  +  00:31:09=32,368 

Withdrawls: 7
 
Rider
Team
Reason
55  ITAMario MantovanITACarrera Jeans-TassoniDid not finish
96  FRARoberto TorresESPFestina-AndorraDid not start
98  BELMichel VermoteESPFestina-AndorraDid not finish
111  FRAArmand De Las CuevasFRACastoramaDid not finish
158  BELEric Van LanckerBELWordperfectDid not finish
192  BELMario De ClercqBELLotto-Veta-CaloiDid not finish
203  ITARosario FinaITAMercatone Uno-MedeghiniDid not finish

Todays birthdays.

1877  Antoine Perrichon
1878  Auguste Berthault
1911  Théo Herckenrath
1924  Carlo Lafranchi
1931  Armand Di Caro
1937  Jean-Claude Lebaube
1951  Giovanni Battaglin
1961  Pascal Jules
1962  Jean-Claude Leclercq
1976  Janek Tombak
1978  Francisco Pérez
1983  Dries Devenyns




Visits: